DW0805 Ramloese DK current weather conditions

sailwx.info

Wind from 076 at 5 knots gusting 10

Air temperature 17.2° C
Dewpoint 15.2° C

Last reported at 2014-Aug-02 01:45 UTC.
Time now 2014-Aug-02 02:50 UTC

Location: N 56°01' E 012°05'.
View on Google Maps.

See reports from other nearby stations

  
Tides and Currents Weather Stations Pressure Air Temp Water Temp Dewpoint Dewpoint Depression Visibility Wind Speed Wind Dir Waves Ship Positions
date/time (UTC)wind fromknots sea level pressurealtimeterstation pressurevisibilityair tempwater tempwave heightnotes
2014-Aug-02 01:45 076 5 gusting 10 17.2
2014-Aug-02 01:35 070 5 gusting 7 17.2
2014-Aug-02 01:25 077 2 gusting 6 17.2
2014-Aug-02 01:15 078 4 gusting 6 17.2
2014-Aug-02 01:05 087 3 gusting 8 17.8
2014-Aug-02 00:55 079 4 gusting 6 17.8
2014-Aug-02 00:45 082 5 gusting 6 18.3
2014-Aug-02 00:35 091 4 gusting 6 18.3
2014-Aug-02 00:25 075 5 gusting 8 18.3
2014-Aug-02 00:15 082 5 gusting 10 18.3
2014-Aug-02 00:05 087 5 gusting 8 18.3
2014-Aug-01 23:55 085 5 gusting 7 18.3
2014-Aug-01 23:45 090 5 gusting 8 18.9
2014-Aug-01 23:35 095 5 gusting 10 18.9
2014-Aug-01 23:25 082 5 gusting 7 18.9
2014-Aug-01 23:15 101 3 gusting 6 18.3
2014-Aug-01 23:05 091 2 gusting 6 18.9
2014-Aug-01 22:55 091 4 gusting 6 18.3
2014-Aug-01 22:45 090 2 gusting 6 18.3
2014-Aug-01 22:35 088 4 gusting 6 18.3
2014-Aug-01 22:25 093 3 gusting 5 18.3
2014-Aug-01 22:15 093 2 gusting 5 18.3
2014-Aug-01 22:05 092 2 gusting 5 18.3
2014-Aug-01 21:55 092 2 gusting 5 18.9
2014-Aug-01 21:45 093 4 gusting 6 18.9
2014-Aug-01 21:35 096 5 gusting 7 19.4
2014-Aug-01 21:25 099 4 gusting 7 20.0
2014-Aug-01 21:15 091 4 gusting 7 20.0
2014-Aug-01 21:05 085 4 gusting 6 20.0
2014-Aug-01 20:55 103 2 gusting 7 20.0
2014-Aug-01 20:45 093 4 gusting 6 20.6
2014-Aug-01 20:35 105 3 gusting 6 20.6
2014-Aug-01 20:25 132 0 gusting 7 20.6
2014-Aug-01 20:15 100 4 gusting 8 20.6
2014-Aug-01 20:05 114 4 gusting 7 21.1
2014-Aug-01 19:55 100 4 gusting 7 21.1
2014-Aug-01 19:45 121 1 gusting 6 21.1
2014-Aug-01 19:35 127 2 gusting 6 21.1
2014-Aug-01 19:25 136 2 gusting 6 21.7
2014-Aug-01 19:15 129 3 gusting 6 21.7
2014-Aug-01 19:05 140 4 gusting 7 21.7
2014-Aug-01 18:55 116 5 gusting 11 22.2
2014-Aug-01 18:45 126 6 gusting 10 22.2
2014-Aug-01 18:35 138 5 gusting 11 22.8
2014-Aug-01 18:25 119 5 gusting 12 22.8
2014-Aug-01 18:15 110 5 gusting 12 23.3
2014-Aug-01 18:05 119 2 gusting 12 23.3
2014-Aug-01 17:55 129 4 gusting 13 23.9
2014-Aug-01 17:45 121 5 gusting 12 23.9
2014-Aug-01 17:35 124 6 gusting 12 23.9
2014-Aug-01 17:25 168 5 gusting 10 24.4
2014-Aug-01 17:15 141 5 gusting 10 24.4
2014-Aug-01 17:05 147 4 gusting 10 25.0
2014-Aug-01 16:55 137 6 gusting 10 25.0
2014-Aug-01 16:45 120 6 gusting 12 25.6
2014-Aug-01 16:35 134 6 gusting 11 25.6
2014-Aug-01 16:25 134 7 gusting 11 25.6
2014-Aug-01 16:15 132 6 gusting 13 26.1
2014-Aug-01 16:05 105 6 gusting 12 26.7
2014-Aug-01 15:55 153 4 gusting 11 27.2
2014-Aug-01 15:45 150 3 gusting 11 26.7
2014-Aug-01 15:35 084 5 gusting 13 27.2
2014-Aug-01 15:25 155 6 gusting 11 27.2
2014-Aug-01 15:15 097 2 gusting 10 26.7
2014-Aug-01 15:05 136 5 gusting 13 26.7
2014-Aug-01 14:55 127 4 gusting 10 26.1
2014-Aug-01 14:45 121 4 gusting 10 26.1
2014-Aug-01 14:35 138 5 gusting 10 25.6
2014-Aug-01 14:25 173 5 gusting 10 26.7
2014-Aug-01 14:15 132 5 gusting 8 26.7
2014-Aug-01 14:05 174 4 gusting 12 25.6
2014-Aug-01 13:55 194 4 gusting 8 26.1
2014-Aug-01 13:45 160 3 gusting 6 26.7
2014-Aug-01 13:35 160 2 gusting 7 26.1
2014-Aug-01 13:25 171 4 gusting 10 26.1
2014-Aug-01 13:15 179 5 gusting 10 27.2
2014-Aug-01 13:05 203 6 gusting 11 27.2
2014-Aug-01 12:55 188 6 gusting 12 27.2
2014-Aug-01 12:45 203 5 gusting 12 26.7
2014-Aug-01 12:35 182 4 gusting 13 26.7
2014-Aug-01 12:25 178 6 gusting 12 26.7
2014-Aug-01 12:15 189 8 gusting 13 26.7
2014-Aug-01 12:05 222 6 gusting 13 26.7
2014-Aug-01 11:55 168 9 gusting 14 26.7
2014-Aug-01 11:45 201 6 gusting 12 26.1
2014-Aug-01 11:35 174 10 gusting 13 26.1
2014-Aug-01 11:25 207 8 gusting 14 25.6
2014-Aug-01 11:15 181 7 gusting 12 26.1
2014-Aug-01 11:05 197 6 gusting 11 26.1
2014-Aug-01 10:55 196 6 gusting 12 25.6
2014-Aug-01 10:45 183 6 gusting 12 26.1
2014-Aug-01 09:35 176 6 gusting 10 25.0
2014-Aug-01 09:25 186 6 gusting 11 24.4
2014-Aug-01 09:15 180 7 gusting 11 23.9
2014-Aug-01 09:05 184 6 gusting 13 23.3
2014-Aug-01 08:55 170 5 gusting 11 22.8
2014-Aug-01 08:45 173 5 gusting 13 22.8
2014-Aug-01 08:35 165 9 gusting 13 22.2
2014-Aug-01 08:25 186 7 gusting 12 22.8
2014-Aug-01 08:15 171 8 gusting 12 21.7
2014-Aug-01 08:05 190 5 gusting 13 21.7
2014-Aug-01 07:55 183 8 gusting 14 21.7
2014-Aug-01 07:45 171 7 gusting 12 21.7
2014-Aug-01 07:35 195 8 gusting 12 21.7
2014-Aug-01 07:25 166 8 gusting 12 21.1
2014-Aug-01 07:15 171 7 gusting 10 21.1
2014-Aug-01 07:05 173 5 gusting 8 21.1
2014-Aug-01 06:55 180 6 gusting 10 20.6
2014-Aug-01 06:45 170 7 gusting 10 20.0
2014-Aug-01 06:35 165 6 gusting 10 20.0
2014-Aug-01 06:25 169 6 gusting 8 20.0
2014-Aug-01 06:15 169 4 gusting 7 19.4
2014-Aug-01 06:05 170 6 gusting 8 19.4
2014-Aug-01 05:55 159 4 gusting 6 19.4
2014-Aug-01 05:45 136 0 gusting 6 19.4
2014-Aug-01 05:35 135 1 gusting 6 19.4
2014-Aug-01 05:25 128 2 gusting 6 18.9
2014-Aug-01 05:15 130 1 gusting 6 18.9
2014-Aug-01 05:05 151 1 gusting 7 18.9
2014-Aug-01 04:55 161 4 gusting 7 18.3
2014-Aug-01 04:45 161 4 gusting 8 18.3
2014-Aug-01 04:35 168 2 gusting 7 18.3
2014-Aug-01 04:25 164 2 gusting 6 18.3
2014-Aug-01 04:15 161 6 gusting 10 18.3
2014-Aug-01 04:05 167 6 gusting 8 18.3
2014-Aug-01 03:55 176 4 gusting 8 18.3
2014-Aug-01 03:45 161 6 gusting 10 18.3
2014-Aug-01 03:35 169 6 gusting 10 18.3
2014-Aug-01 03:25 162 7 gusting 11 18.3
2014-Aug-01 03:15 164 8 gusting 11 18.3
2014-Aug-01 03:05 168 7 gusting 12 18.3
2014-Aug-01 02:55 163 6 gusting 11 18.3
2014-Aug-01 02:45 159 7 gusting 12 18.3
2014-Aug-01 02:35 164 9 gusting 11 18.3
2014-Aug-01 02:25 172 5 gusting 10 18.3
2014-Aug-01 02:15 195 5 gusting 8 17.8
2014-Aug-01 02:05 198 2 gusting 6 17.8
2014-Aug-01 01:55 190 3 gusting 6 17.8
2014-Aug-01 01:45 196 2 gusting 6 17.8
2014-Aug-01 01:35 198 1 gusting 6 17.8
2014-Aug-01 01:25 196 3 gusting 6 18.3
2014-Aug-01 01:05 198 4 gusting 10 18.3
2014-Aug-01 00:55 199 5 gusting 7 18.3
2014-Aug-01 00:45 189 3 gusting 7 18.3
2014-Aug-01 00:35 192 4 gusting 8 18.3
2014-Aug-01 00:25 190 4 gusting 8 18.3
2014-Aug-01 00:15 194 2 gusting 6 17.8
2014-Aug-01 00:05 200 2 gusting 6 17.8
2014-Jul-31 23:55 195 2 gusting 6 17.8
2014-Jul-31 23:45 192 2 gusting 7 17.8
2014-Jul-31 23:35 192 4 gusting 8 17.8
2014-Jul-31 23:25 199 3 gusting 7 17.8
2014-Jul-31 23:15 200 2 gusting 6 18.3
2014-Jul-31 23:05 197 4 gusting 7 17.8
2014-Jul-31 22:55 203 2 gusting 7 17.8
2014-Jul-31 22:45 204 2 gusting 6 17.8
2014-Jul-31 22:35 209 2 gusting 6 17.8
2014-Jul-31 22:25 204 3 gusting 6 18.3
2014-Jul-31 22:15 194 4 gusting 6 18.3
2014-Jul-31 22:05 200 2 gusting 6 18.3
2014-Jul-31 21:55 198 5 gusting 7 18.3
2014-Jul-31 21:45 198 3 gusting 7 18.3
2014-Jul-31 21:35 203 2 gusting 6 18.3
2014-Jul-31 21:25 199 4 gusting 6 18.3
2014-Jul-31 21:15 200 3 gusting 6 18.3
2014-Jul-31 21:05 200 4 gusting 6 18.3
2014-Jul-31 20:55 204 2 gusting 6 18.3
2014-Jul-31 20:45 208 2 gusting 5 18.3
2014-Jul-31 20:35 209 2 gusting 6 18.9
2014-Jul-31 20:25 210 4 gusting 6 18.9
2014-Jul-31 20:15 211 4 gusting 6 18.9
2014-Jul-31 20:05 211 2 gusting 5 18.9
2014-Jul-31 19:55 211 2 gusting 7 19.4
2014-Jul-31 19:45 209 2 gusting 6 19.4
2014-Jul-31 19:35 206 2 gusting 6 19.4
2014-Jul-31 19:25 208 4 gusting 7 20.0
2014-Jul-31 19:15 206 4 gusting 6 20.0
2014-Jul-31 19:05 202 5 gusting 7 20.6
2014-Jul-31 18:25 212 5 gusting 11 21.1
2014-Jul-31 18:15 213 2 gusting 8 21.7
2014-Jul-31 18:05 212 5 gusting 10 22.2
2014-Jul-31 17:55 207 5 gusting 10 22.2
2014-Jul-31 17:45 205 6 gusting 7 22.2
2014-Jul-31 17:35 201 5 gusting 10 22.2
2014-Jul-31 17:25 212 5 gusting 12 22.8
2014-Jul-31 16:55 212 6 gusting 13 23.3
2014-Jul-31 16:45 210 6 gusting 15 23.9
2014-Jul-31 16:35 233 6 gusting 12 23.9
2014-Jul-31 16:25 229 8 gusting 13 23.9
2014-Jul-31 16:15 206 8 gusting 13 24.4
2014-Jul-31 16:05 205 7 gusting 17 24.4
2014-Jul-31 15:55 261 8 gusting 13 24.4
2014-Jul-31 15:45 217 8 gusting 14 24.4
2014-Jul-31 15:35 216 10 gusting 15 23.9
2014-Jul-31 15:25 213 7 gusting 13 23.9
2014-Jul-31 15:15 232 6 gusting 13 25.0
2014-Jul-31 15:05 210 10 gusting 15 24.4
2014-Jul-31 14:55 222 8 gusting 15 25.0
2014-Jul-31 14:45 224 9 gusting 15 25.0
2014-Jul-31 14:35 225 8 gusting 14 25.0
2014-Jul-31 14:25 214 9 gusting 14 25.6
2014-Jul-31 14:15 214 5 gusting 13 25.6
2014-Jul-31 14:05 225 6 gusting 13 25.0
2014-Jul-31 13:55 224 6 gusting 17 24.4
2014-Jul-31 13:45 210 9 gusting 13 25.0
2014-Jul-31 13:35 244 8 gusting 13 25.0
2014-Jul-31 13:25 209 6 gusting 13 23.9
2014-Jul-31 13:15 243 9 gusting 15 25.0
2014-Jul-31 12:45 237 8 gusting 14 23.3
2014-Jul-31 12:35 218 7 gusting 13 23.9
2014-Jul-31 12:25 230 7 gusting 15 25.0
2014-Jul-31 12:15 235 6 gusting 15 25.0
2014-Jul-31 12:05 235 12 gusting 17 24.4
2014-Jul-31 11:55 230 8 gusting 14 24.4
2014-Jul-31 11:45 243 6 gusting 13 25.0
2014-Jul-31 11:35 245 6 gusting 13 24.4
2014-Jul-31 11:25 227 8 gusting 15 24.4
2014-Jul-31 11:15 236 5 gusting 13 24.4
2014-Jul-31 11:05 261 8 gusting 13 24.4
2014-Jul-31 10:55 227 5 gusting 12 24.4
2014-Jul-31 10:45 209 6 gusting 13 24.4
2014-Jul-31 10:35 202 6 gusting 12 23.9
2014-Jul-31 10:25 233 7 gusting 13 23.9
2014-Jul-31 10:15 211 4 gusting 11 22.8
2014-Jul-31 10:05 235 6 gusting 13 22.8
2014-Jul-31 09:55 189 6 gusting 11 22.2
2014-Jul-31 09:45 221 6 gusting 10 20.6
2014-Jul-31 09:35 212 6 gusting 12 21.7
2014-Jul-31 09:25 203 4 gusting 13 22.8
2014-Jul-31 09:15 205 6 gusting 13 22.2
2014-Jul-31 09:05 207 5 gusting 13 22.8
2014-Jul-31 08:55 209 5 gusting 12 22.2
2014-Jul-31 08:45 205 5 gusting 13 21.7
2014-Jul-31 08:35 218 8 gusting 13 21.7
2014-Jul-31 08:25 231 5 gusting 13 21.7
2014-Jul-31 08:15 225 7 gusting 13 22.2
2014-Jul-31 08:05 215 6 gusting 11 22.8
2014-Jul-31 07:55 244 6 gusting 13 22.2
2014-Jul-31 07:45 255 7 gusting 13 21.7
2014-Jul-31 07:35 230 8 gusting 13 21.7
2014-Jul-31 07:25 200 6 gusting 14 22.2
2014-Jul-31 07:15 245 6 gusting 11 21.7
2014-Jul-31 07:05 232 6 gusting 12 20.6
2014-Jul-31 06:55 197 5 gusting 10 19.4
2014-Jul-31 06:45 224 6 gusting 13 19.4
2014-Jul-31 06:35 262 7 gusting 13 20.0
2014-Jul-31 06:25 249 6 gusting 11 20.0
2014-Jul-31 06:15 242 7 gusting 13 20.0
2014-Jul-31 06:05 234 8 gusting 12 20.0
2014-Jul-31 05:55 201 6 gusting 13 20.0
2014-Jul-31 05:45 271 6 gusting 13 19.4
2014-Jul-31 04:45 214 3 gusting 11 19.4
2014-Jul-31 04:35 248 5 gusting 8 18.3
2014-Jul-31 04:25 254 3 gusting 7 17.8
2014-Jul-31 04:15 251 4 gusting 10 17.8
2014-Jul-31 04:05 250 4 gusting 10 17.8
2014-Jul-31 03:55 243 6 gusting 11 17.2
2014-Jul-31 03:45 253 4 gusting 8 17.2
2014-Jul-31 03:35 257 6 gusting 12 17.8
2014-Jul-31 03:25 251 5 gusting 10 17.8
2014-Jul-31 03:15 235 4 gusting 11 17.8
2014-Jul-31 03:05 254 5 gusting 8 17.8
2014-Jul-31 02:45 257 4 gusting 5 17.8
2014-Jul-31 02:35 233 2 gusting 6 17.8
2014-Jul-31 02:25 250 4 gusting 8 17.8
2014-Jul-31 02:15 268 4 gusting 6 17.8
2014-Jul-31 02:05 276 2 gusting 7 17.8